Regional Weather Roundup
Issued by NWS

Home | Current Version | Previous Version | Graphics & Text | Print | Product List | Glossary On
Versions: 1 2 3 4 5 6 7 8 9 10 11 12 13 14 15 16 17 18 19 20 21 22 23 24 25 26 27 28 29 30 31 32 33 34 35 36 37 38 39 40 41 42 43 44 45 46 47 48 49 50
000
ASUS45 KBOU 311807
RWRCO

WEATHER ROUNDUP FOR COLORADO
NATIONAL WEATHER SERVICE DENVER/BOULDER CO
1200 PM MDT MON AUG 31 2015

NOTE: "FAIR" INDICATES FEW OR NO CLOUDS BELOW 12000 FEET WITH NO
SIGNIFICANT WEATHER AND/OR OBSTRUCTIONS TO VISIBILITY.

COZ001>005-013-030-031-311900-
...NORTHWEST COLORADO...

CITY           SKY/WX    TMP DP  RH WIND       PRES   REMARKS
CRAIG          MOSUNNY   76  52  43 VRB3      30.23F
HAYDEN         NOT AVBL
MEEKER         MOSUNNY   70  54  56 CALM      30.25F
MOUNT WERNER   NOT AVBL
STEAMBOAT SPGS PTSUNNY   66  51  57 CALM      30.28F
WALDEN         MOSUNNY   61  43  51 S10       30.36S
$$

COZ006>008-011-311900-
...WEST CENTRAL VALLEYS...

CITY           SKY/WX    TMP DP  RH WIND       PRES   REMARKS
GRAND JUNCTION MOSUNNY   71  57  61 S7        30.18F
MONTROSE       PTSUNNY   72  56  57 VRB5      30.27F
EAGLE          PTSUNNY   70  52  52 CALM      30.30F
RIFLE          LGT RAIN  64  58  80 CALM      30.26R
DELTA          PTSUNNY   74  56  51 E7        30.23S
NUCLA          PTSUNNY   77  46  33 N5        30.27F
$$

COZ017>023-064>068-311900-
...SOUTHWEST COLORADO...

CITY           SKY/WX    TMP DP  RH WIND       PRES   REMARKS
DURANGO        CLOUDY    70  48  45 SW3       30.29S
CORTEZ         MOSUNNY   79  51  37 VRB5      30.24F
PAGOSA SPRINGS PTSUNNY   72  43  35 CALM      30.35F
TELLURIDE      PTSUNNY   66  44  45 W8        30.46S
WOLF CREEK PAS PTSUNNY   52  43  71 S14G24    30.66S
$$

COZ009-010-012-014-032>034-037-058>063-311900-
...CENTRAL COLORADO...

CITY           SKY/WX    TMP DP  RH WIND       PRES   REMARKS
ASPEN          LGT RAIN  63  52  67 N8        30.35S
BUENA VISTA    PTSUNNY   71  40  32 CALM      30.33S
COPPER MTN     CLOUDY    54  37  54 W7G16     30.62F
BERTHOUD PASS  CLOUDY    43  32  65 N5        30.67R
COTTONWOOD PAS PTSUNNY   64  41  42 CALM      30.47S
GUNNISON       CLOUDY    64  48  55 CALM      30.38F
KREMMLING      CLOUDY    63  45  51 CALM      30.35F
LEADVILLE      PTSUNNY   62  40  44 CALM      30.46F
SALIDA         PTSUNNY   74  43  32 N6        30.35F
SUNLIGHT       CLOUDY    52  48  87 CALM      30.58S
WILKERSON PASS MOSUNNY   61  36  39 CALM      30.59F
$$

COZ069>075-311900-
...SAN LUIS VALLEY/SANGRE DE CRISTO MOUNTAINS...

CITY           SKY/WX    TMP DP  RH WIND       PRES   REMARKS
ALAMOSA        MOSUNNY   74  42  31 E3        30.30F
LA VETA PASS   CLOUDY    61  41  48 SW8       30.49S THUNDER
SAGUACHE       PTSUNNY   70  45  40 SE10      30.34S
$$

COZ035-036-038>040-311900-
...NORTHERN COLORADO FRONT RANGE...

CITY           SKY/WX    TMP DP  RH WIND       PRES   REMARKS
DENVER INTL AP CLOUDY    81  44  27 VRB7      30.13F
DMNS CITY PARK   N/A     82  45  26 E9G16     30.12S
AURORA         PTSUNNY   80  45  29 SE9       30.15F
FRONT RANGE AP PTSUNNY   81  45  28 SE7       30.15F
ERIE MUNI ARPT CLOUDY    81  44  26 SE3       30.11F
BOULDER MUN AP CLOUDY    81  45  28 NE5       30.11S
CENTENNIAL     CLOUDY    79  44  28 E5        30.16F
BROOMFIELD     PTSUNNY   81  45  28 E3        30.15F
FORT COLLINS   PTSUNNY   81  48  32 S8        30.10F
LONGMONT       PTSUNNY   84  47  27 E6        30.11F
$$

COZ041-046-047-076>085-087-088-311900-
...PIKES PEAK/PALMER DIVIDE AND SOUTHERN FOOTHILLS...

CITY           SKY/WX    TMP DP  RH WIND       PRES   REMARKS
COLO. SPRINGS  PTSUNNY   80  43  26 NW3       30.18F
A. F. ACADEMY  PTSUNNY   80  44  28 VRB7      30.19F
ELLICOTT       PTSUNNY    1   1 100 NE15      30.16F WCI -18
FALCON         PTSUNNY   77  45  31 MISG      30.24F
FORT CARSON    PTSUNNY   81  47  29 NE6       30.15F
LIMON          LGT RAIN  79  47  32 N15       30.14S
MONUMENT HILL  CLOUDY    75  41  29 E5        30.25F
TRINIDAD       SUNNY     89  43  20 N10       30.13F
$$

COZ042>045-048>051-090-091-311900-
...NORTHEAST COLORADO...

CITY           SKY/WX    TMP DP  RH WIND       PRES   REMARKS
GREELEY ARPT   CLOUDY    79  54  41 SW6       30.10S
AKRON          PTSUNNY   85  49  28 N15       30.08S
BURLINGTON     SUNNY     87  50  27 NE12G20   30.02S
WRAY           CLOUDY    94  46  19 N14G23    29.99S
STERLING       PTSUNNY   82  54  36 NE7       30.04S
HOLYOKE        MOSUNNY   90  45  20 N15       30.00S
FORT MORGAN    PTSUNNY   84  44  25 W9G18     30.07F
$$

COZ086-089-092>099-311900-
...SOUTHEAST COLORADO...

CITY           SKY/WX    TMP DP  RH WIND       PRES   REMARKS
PUEBLO         PTSUNNY   89  46  22 E5        30.06F
LA JUNTA       SUNNY     95  48  20 N18G25    30.00F
LAMAR          SUNNY     85  56  37 CALM      29.94F HAZE
SPRINGFIELD    NOT AVBL
$$



USA.gov is the U.S. government's official web portal to all federal, state and local government web resources and services.